Hourly Weather Allaire

Today, 27 February, Saturday

Time Temperature Precipitation Wind Pressure Humidity
00:00 +3°C° 0 mm 4 mps 774 mmHg 93%
01:00 +2°C° 0 mm 3 mps 774 mmHg 91%
02:00 +2°C° 0 mm 3 mps 773 mmHg 89%
03:00 +1°C° 0 mm 3 mps 773 mmHg 86%
04:00 +1°C° 0 mm 3 mps 773 mmHg 86%
05:00 0°C° 0 mm 3 mps 774 mmHg 85%
06:00 0°C° 0 mm 3 mps 774 mmHg 85%
07:00 0°C° 0 mm 4 mps 774 mmHg 81%
08:00 +1°C° 0 mm 4 mps 774 mmHg 77%
09:00 +3°C° 0 mm 5 mps 774 mmHg 73%
10:00 +5°C° 0 mm 5 mps 774 mmHg 70%
11:00 +7°C° 0 mm 6 mps 774 mmHg 66%
12:00 +8°C° 0 mm 6 mps 774 mmHg 62%
13:00 +9°C° 0 mm 6 mps 773 mmHg 63%
14:00 +9°C° 0 mm 6 mps 772 mmHg 63%
15:00 +10°C° 0 mm 6 mps 772 mmHg 64%
16:00 +8°C° 0 mm 5 mps 771 mmHg 70%
17:00 +7°C° 0 mm 5 mps 771 mmHg 75%
18:00 +6°C° 0 mm 4 mps 771 mmHg 81%
19:00 +5°C° 0 mm 5 mps 771 mmHg 83%
20:00 +5°C° 0 mm 5 mps 771 mmHg 85%
21:00 +3°C° 0 mm 5 mps 771 mmHg 87%
22:00 +2°C° 0 mm 5 mps 771 mmHg 88%
23:00 +2°C° 0 mm 5 mps 771 mmHg 89%

Tomorrow, 28 February, Sunday

Time Temperature Precipitation Wind Pressure Humidity
00:00 +1°C° 0 mm 5 mps 771 mmHg 90%
01:00 +1°C° 0 mm 5 mps 770 mmHg 90%
02:00 +1°C° 0 mm 5 mps 770 mmHg 90%
03:00 +1°C° 0 mm 5 mps 769 mmHg 91%
04:00 0°C° 0 mm 5 mps 769 mmHg 91%
05:00 0°C° 0 mm 5 mps 769 mmHg 91%
06:00 0°C° 0 mm 5 mps 769 mmHg 92%
07:00 +1°C° 0 mm 6 mps 769 mmHg 87%
08:00 +2°C° 0 mm 6 mps 768 mmHg 83%
09:00 +3°C° 0 mm 7 mps 768 mmHg 78%
10:00 +4°C° 0 mm 7 mps 768 mmHg 74%
11:00 +6°C° 0 mm 7 mps 768 mmHg 70%
12:00 +8°C° 0 mm 7 mps 768 mmHg 67%
13:00 +9°C° 0 mm 7 mps 767 mmHg 67%
14:00 +9°C° 0 mm 7 mps 767 mmHg 67%
15:00 +10°C° 0 mm 7 mps 766 mmHg 67%
16:00 +8°C° 0 mm 6 mps 766 mmHg 71%
17:00 +7°C° 0 mm 6 mps 766 mmHg 75%
18:00 +6°C° 0 mm 5 mps 766 mmHg 79%
19:00 +5°C° 0 mm 5 mps 766 mmHg 79%
20:00 +5°C° 0 mm 5 mps 766 mmHg 80%
21:00 +3°C° 0 mm 5 mps 766 mmHg 81%
22:00 +2°C° 0 mm 5 mps 766 mmHg 83%
23:00 +3°C° 0 mm 4 mps 766 mmHg 86%

Day after tomorrow, 1 March, Monday

Time Temperature Precipitation Wind Pressure Humidity
00:00 +1°C° 0 mm 4 mps 766 mmHg 89%
01:00 +1°C° 0 mm 4 mps 766 mmHg 90%
02:00 +1°C° 0 mm 4 mps 766 mmHg 92%
03:00 +1°C° 0 mm 4 mps 765 mmHg 93%
04:00 +1°C° 0 mm 4 mps 765 mmHg 94%
05:00 +1°C° 0 mm 4 mps 765 mmHg 94%
06:00 +1°C° 0 mm 4 mps 765 mmHg 94%
07:00 +3°C° 0 mm 4 mps 765 mmHg 91%
08:00 +4°C° 0 mm 4 mps 765 mmHg 87%
09:00 +5°C° 0 mm 5 mps 765 mmHg 84%
10:00 +7°C° 0 mm 4 mps 765 mmHg 80%
11:00 +10°C° 0 mm 4 mps 765 mmHg 76%
12:00 +12°C° 0 mm 4 mps 765 mmHg 72%
13:00 +12°C° 0 mm 4 mps 764 mmHg 71%
14:00 +13°C° 0 mm 4 mps 764 mmHg 69%
15:00 +14°C° 0 mm 5 mps 764 mmHg 67%
16:00 +12°C° 0 mm 4 mps 764 mmHg 74%
17:00 +11°C° 0 mm 4 mps 764 mmHg 81%
18:00 +9°C° 0 mm 3 mps 763 mmHg 88%
19:00 +9°C° 0 mm 3 mps 764 mmHg 89%
20:00 +8°C° 0 mm 3 mps 764 mmHg 90%
21:00 +7°C° 0 mm 3 mps 764 mmHg 91%
22:00 +7°C° 0 mm 3 mps 764 mmHg 91%
23:00 +6°C° 0 mm 4 mps 764 mmHg 92%

2 March, Tuesday

Time Temperature Precipitation Wind Pressure Humidity
00:00 +5°C° 0 mm 4 mps 764 mmHg 92%
01:00 +5°C° 0 mm 4 mps 764 mmHg 92%
02:00 +5°C° 0 mm 3 mps 763 mmHg 93%
03:00 +5°C° 0 mm 3 mps 763 mmHg 93%
04:00 +5°C° 0 mm 3 mps 763 mmHg 93%
05:00 +5°C° 0 mm 4 mps 763 mmHg 92%
06:00 +5°C° 0 mm 4 mps 763 mmHg 92%
07:00 +6°C° 0.1 mm 4 mps 763 mmHg 89%
08:00 +7°C° 0.1 mm 4 mps 764 mmHg 86%
09:00 +7°C° 0.1 mm 5 mps 764 mmHg 84%
10:00 +9°C° 0.2 mm 5 mps 764 mmHg 82%
11:00 +11°C° 0.2 mm 6 mps 764 mmHg 81%
12:00 +13°C° 0.2 mm 6 mps 764 mmHg 79%
13:00 +13°C° 0 mm 6 mps 764 mmHg 80%
14:00 +13°C° 0 mm 5 mps 764 mmHg 81%
15:00 +13°C° 0 mm 5 mps 764 mmHg 82%
16:00 +12°C° 0 mm 4 mps 764 mmHg 84%
17:00 +11°C° 0 mm 4 mps 764 mmHg 86%
18:00 +10°C° 0 mm 3 mps 764 mmHg 89%
19:00 +10°C° 0 mm 3 mps 765 mmHg 91%
20:00 +9°C° 0 mm 3 mps 765 mmHg 92%
21:00 +7°C° 0 mm 4 mps 766 mmHg 94%
22:00 +8°C° 0.1 mm 4 mps 766 mmHg 93%
23:00 +8°C° 0.1 mm 4 mps 766 mmHg 91%

3 March, Wednesday

Time Temperature Precipitation Wind Pressure Humidity
00:00 +8°C° 0.1 mm 4 mps 766 mmHg 90%
01:00 +9°C° 0 mm 3 mps 766 mmHg 90%
02:00 +8°C° 0 mm 3 mps 766 mmHg 91%
03:00 +8°C° 0 mm 3 mps 766 mmHg 92%
04:00 +8°C° 0 mm 3 mps 766 mmHg 91%
05:00 +8°C° 0 mm 3 mps 767 mmHg 90%
06:00 +8°C° 0 mm 3 mps 767 mmHg 89%
07:00 +9°C° 0 mm 3 mps 767 mmHg 86%
08:00 +10°C° 0 mm 3 mps 767 mmHg 83%
09:00 +11°C° 0 mm 3 mps 768 mmHg 80%
10:00 +12°C° 0 mm 3 mps 768 mmHg 76%
11:00 +13°C° 0 mm 4 mps 768 mmHg 72%
12:00 +14°C° 0 mm 4 mps 768 mmHg 67%
13:00 +14°C° 0 mm 4 mps 767 mmHg 68%
14:00 +14°C° 0 mm 3 mps 767 mmHg 69%
15:00 +14°C° 0 mm 3 mps 767 mmHg 70%
16:00 +12°C° 0 mm 3 mps 767 mmHg 75%
17:00 +12°C° 0 mm 2 mps 767 mmHg 81%
18:00 +10°C° 0 mm 2 mps 767 mmHg 87%
19:00 +9°C° 0 mm 2 mps 767 mmHg 89%
20:00 +8°C° 0 mm 2 mps 767 mmHg 90%
21:00 +7°C° 0 mm 2 mps 767 mmHg 92%
22:00 +8°C° 0 mm 1 mps 767 mmHg 92%
23:00 +8°C° 0 mm 1 mps 767 mmHg 93%

4 March, Thursday

Time Temperature Precipitation Wind Pressure Humidity
00:00 +8°C° 0 mm 1 mps 767 mmHg 93%
01:00 +8°C° 0 mm 1 mps 767 mmHg 94%
02:00 +7°C° 0 mm 1 mps 767 mmHg 94%
03:00 +7°C° 0 mm 1 mps 766 mmHg 94%
04:00 +7°C° 0 mm 1 mps 766 mmHg 95%
05:00 +7°C° 0 mm 1 mps 766 mmHg 95%
06:00 +6°C° 0 mm 1 mps 766 mmHg 95%
07:00 +7°C° 0 mm 2 mps 766 mmHg 93%
08:00 +8°C° 0 mm 2 mps 766 mmHg 91%
09:00 +9°C° 0 mm 2 mps 766 mmHg 89%
10:00 +9°C° 0 mm 2 mps 766 mmHg 86%
11:00 +10°C° 0 mm 2 mps 766 mmHg 83%
12:00 +12°C° 0 mm 2 mps 765 mmHg 79%
13:00 +12°C° 0 mm 2 mps 765 mmHg 79%
14:00 +12°C° 0 mm 2 mps 765 mmHg 78%
15:00 +12°C° 0 mm 2 mps 764 mmHg 77%
16:00 +12°C° 0 mm 2 mps 764 mmHg 79%
17:00 +10°C° 0 mm 2 mps 764 mmHg 81%
18:00 +10°C° 0 mm 2 mps 764 mmHg 83%
19:00 +9°C° 0 mm 2 mps 764 mmHg 83%
20:00 +8°C° 0 mm 2 mps 764 mmHg 84%
21:00 +8°C° 0 mm 2 mps 764 mmHg 85%
22:00 +7°C° 0 mm 2 mps 764 mmHg 87%
23:00 +7°C° 0 mm 2 mps 764 mmHg 90%
Show more